Weather History for Big Piney, WY

Change the Weather History Date:

Wednesday, November 28, 2012

  Actual Average Record
Temperature  
Mean Temperature 27 °F 17 °F  
Max Temperature 44 °F 31 °F 49 °F (1999)
Min Temperature 10 °F 4 °F -14 °F (1989)
Degree Days  
Heating Degree Days 38 48  
Month to date heating degree days 971 1139  
Since 1 July heating degree days 2101 2719  
Cooling Degree Days 0 0  
Month to date cooling degree days 0 0  
Year to date cooling degree days 67 35  
Moisture  
Dew Point 13 °F    
Average Humidity 61    
Maximum Humidity 88    
Minimum Humidity 33    
Precipitation  
Precipitation 0.00 in 0.01 in 0.05 in (2004)
Month to date precipitation 0.15 0.20  
Year to date precipitation 2.65 6.17  
Sea Level Pressure  
Sea Level Pressure 30.26 in    
Wind  
Wind Speed 3 mph (ENE)    
Max Wind Speed 8 mph    
Max Gust Speed 8 mph    
Visibility 10 miles    
Events      
T = Trace of Precipitation, MM = Missing Value Source: NWS Daily Summary

Daily Weather History Graph

Daily Weather History Graph

Search for Another Location

Airport:

Trip Planner

Search our weather history database for the weather conditions in past years. The results will help you decide how hot, cold, wet, or windy it might be!

Date:

Astronomy

Nov. 28, 2012 Rise Set
Actual Time 7:28 AM MST 4:49 PM MST
Civil Twilight 6:56 AM MST 5:20 PM MST
Nautical Twilight 6:21 AM MST 5:55 PM MST
Astronomical Twilight 5:47 AM MST 6:29 PM MST
Moon 5:06 PM MST (11/28) 7:28 AM MST (11/28)
Length of Visible Light 10h 23m
Length of Day
9h 21m
Full, 100% of the Moon is Illuminated
Nov 28
Full
Dec 6
Last Quarter
Dec 13
New
Dec 19
First Quarter
Dec 28
Full

Hourly Weather History & Observations

Time (MST) Temp. Windchill Dew Point Humidity Pressure Visibility Wind Dir Wind Speed Gust Speed Precip Events Conditions
12:53 AM 14.0 °F 8.2 °F 9.0 °F 80% 30.33 in 10.0 mi NNW 3.5 mph - N/A   Clear
1:53 AM 17.1 °F - 10.9 °F 77% 30.31 in 10.0 mi Calm Calm - N/A   Clear
2:53 AM 14.0 °F - 10.0 °F 84% 30.31 in 10.0 mi Calm Calm - N/A   Clear
3:53 AM 14.0 °F - 9.0 °F 80% 30.33 in 10.0 mi Calm Calm - N/A   Clear
4:53 AM 12.2 °F 1.7 °F 8.6 °F 85% 30.26 in 10.0 mi East 6.9 mph - N/A   Clear
5:53 AM 12.0 °F 2.7 °F 7.0 °F 80% 30.41 in 10.0 mi East 5.8 mph - N/A   Clear
6:53 AM 14.0 °F - 9.0 °F 80% 30.42 in 10.0 mi Calm Calm - N/A   Clear
7:53 AM 14.0 °F 8.2 °F 9.0 °F 80% 30.42 in 10.0 mi NNW 3.5 mph - N/A   Clear
8:53 AM 19.0 °F 13.9 °F 14.0 °F 81% 30.41 in 10.0 mi East 3.5 mph - N/A   Clear
9:53 AM 24.1 °F - 14.0 °F 65% 30.40 in 10.0 mi Calm Calm - N/A   Clear
10:53 AM 30.0 °F 26.5 °F 15.1 °F 54% 30.34 in 10.0 mi East 3.5 mph - N/A   Clear
11:53 AM 36.0 °F - 15.1 °F 43% 30.28 in 10.0 mi Calm Calm - N/A   Clear
12:53 PM 39.9 °F 37.8 °F 14.0 °F 35% 30.24 in 10.0 mi Variable 3.5 mph - N/A   Clear
1:53 PM 43.0 °F - 15.1 °F 32% 30.17 in 10.0 mi Calm Calm - N/A   Clear
2:53 PM 42.1 °F 38.4 °F 16.0 °F 35% 30.16 in 10.0 mi SSW 5.8 mph - N/A   Clear
3:53 PM 41.0 °F - 16.0 °F 36% 30.14 in 10.0 mi Calm Calm - N/A   Clear
4:53 PM 37.9 °F - 16.0 °F 41% 30.16 in 10.0 mi Calm Calm - N/A   Clear
5:53 PM 34.0 °F - 16.0 °F 48% 30.19 in 10.0 mi Calm Calm - N/A   Clear
6:53 PM 28.0 °F 24.2 °F 15.1 °F 58% 30.22 in 10.0 mi East 3.5 mph - N/A   Partly Cloudy
7:53 PM 30.0 °F 25.2 °F 16.0 °F 56% 30.18 in 10.0 mi ENE 4.6 mph - N/A   Overcast
8:53 PM 24.1 °F 19.7 °F 15.1 °F 69% 30.18 in 10.0 mi NNW 3.5 mph - N/A   Scattered Clouds
9:53 PM 25.0 °F 19.3 °F 16.0 °F 69% 30.14 in 10.0 mi ENE 4.6 mph - N/A   Mostly Cloudy
10:53 PM 26.1 °F 20.5 °F 16.0 °F 66% 30.11 in 10.0 mi East 4.6 mph - N/A   Overcast
11:53 PM 24.1 °F 17.0 °F 17.1 °F 75% 30.08 in 10.0 mi NNW 5.8 mph - N/A   Partly Cloudy